Homer, AK

1:58 AM AKDT on June 24, 2017 (GMT -0800)
Homer

Weather History for PAHO - October, 2012

Change the Weather History Date:

Thursday, October 11, 2012

  Actual Average Record
Temperature  
Mean Temperature 40 °F -  
Max Temperature 48 °F 46 °F 57 °F (2016)
Min Temperature 32 °F 33 °F 15 °F (1939)
Degree Days  
Heating Degree Days 25    
Moisture  
Dew Point 33 °F    
Average Humidity 78    
Maximum Humidity 89    
Minimum Humidity 61    
Precipitation  
Precipitation 0.00 in - - ()
Sea Level Pressure  
Sea Level Pressure 29.73 in    
Wind  
Wind Speed 2 mph (NE)    
Max Wind Speed 7 mph    
Max Gust Speed -    
Visibility 10 miles    
Events      
Averages and records for this station are not official NWS values.
T = Trace of Precipitation, MM = Missing Value Source: NWS Daily Summary

Daily Weather History Graph

Daily Weather History Graph

Search for Another Location

Airport or City:

Trip Planner

Search our weather history database for the weather conditions in past years. The results will help you decide how hot, cold, wet, or windy it might be!

Date:

Astronomy

Oct. 11, 2012 Rise Set
Actual Time 8:36 AM AKDT 7:07 PM AKDT
Civil Twilight 7:55 AM AKDT 7:48 PM AKDT
Nautical Twilight 7:07 AM AKDT 8:35 PM AKDT
Astronomical Twilight 6:18 AM AKDT 9:24 PM AKDT
Moon 3:32 AM AKDT (10/11) 5:33 PM AKDT (10/11)
Length of Visible Light 11h 53m
Length of Day
10h 30m
Waning Crescent, 17% of the Moon is Illuminated
Oct 11
Waning Crescent
Oct 15
New
Oct 21
First Quarter
Oct 29
Full
Nov 6
Last Quarter

Hourly Weather History & Observations

Time (AKDT) Temp. Windchill Dew Point Humidity Pressure Visibility Wind Dir Wind Speed Gust Speed Precip Events Conditions
12:53 AM 35.1 °F - 32.0 °F 89% 29.90 in 10.0 mi Calm Calm - N/A   Clear
1:53 AM 34.0 °F - 30.9 °F 89% 29.90 in 10.0 mi Calm Calm - N/A   Clear
2:53 AM 34.0 °F 31.0 °F 30.0 °F 85% 29.89 in 10.0 mi North 3.5 mph - N/A   Clear
3:53 AM 35.1 °F - 30.9 °F 85% 29.88 in 10.0 mi Calm Calm - N/A   Clear
4:53 AM 34.0 °F - 30.0 °F 85% 29.86 in 10.0 mi Calm Calm - N/A   Clear
5:53 AM 33.1 °F - 30.0 °F 89% 29.85 in 10.0 mi Calm Calm - N/A   Clear
6:53 AM 33.1 °F 30.0 °F 28.9 °F 85% 29.83 in 10.0 mi NE 3.5 mph - N/A   Clear
7:53 AM 32.0 °F - 28.9 °F 88% 29.81 in 10.0 mi Calm Calm - N/A   Clear
8:53 AM 33.1 °F 27.7 °F 28.9 °F 85% 29.81 in 10.0 mi NE 5.8 mph - N/A   Clear
9:53 AM 37.0 °F 32.4 °F 30.9 °F 79% 29.79 in 10.0 mi NE 5.8 mph - N/A   Clear
10:53 AM 42.1 °F 37.7 °F 34.0 °F 73% 29.78 in 10.0 mi East 6.9 mph - N/A   Clear
12:53 PM 44.1 °F 42.5 °F 35.1 °F 71% 29.75 in 10.0 mi NE 3.5 mph - N/A   Mostly Cloudy
1:53 PM 45.0 °F 41.8 °F 35.1 °F 68% 29.73 in 10.0 mi ESE 5.8 mph - N/A   Mostly Cloudy
2:53 PM 46.9 °F - 36.0 °F 66% 29.70 in 10.0 mi ESE 4.6 mph - N/A   Scattered Clouds
3:53 PM 48.0 °F - 35.1 °F 61% 29.67 in 10.0 mi Calm Calm - N/A   Clear
4:53 PM 46.9 °F - 36.0 °F 66% 29.65 in 10.0 mi Calm Calm - N/A   Clear
5:53 PM 46.9 °F - 37.0 °F 68% 29.62 in 10.0 mi Calm Calm - N/A   Clear
6:53 PM 45.0 °F - 36.0 °F 71% 29.61 in 10.0 mi Calm Calm - N/A   Clear
7:53 PM 42.1 °F 37.7 °F 36.0 °F 79% 29.60 in 10.0 mi ENE 6.9 mph - N/A   Clear
8:53 PM 37.9 °F 35.5 °F 33.1 °F 83% 29.57 in 10.0 mi North 3.5 mph - N/A   Clear
9:53 PM 37.9 °F 34.4 °F 32.0 °F 79% 29.56 in 10.0 mi NNE 4.6 mph - N/A   Scattered Clouds
10:53 PM 39.9 °F 37.8 °F 32.0 °F 73% 29.55 in 10.0 mi NNE 3.5 mph - N/A   Partly Cloudy
11:53 PM 37.9 °F 35.5 °F 30.9 °F 76% 29.52 in 10.0 mi NNE 3.5 mph - N/A   Clear